Weather in Pola

Russia / Novgorod Oblast     57°56′10″N   31°49′50″E
temp.,
°C
wind,
m/s
gust,
m/s
humid.,
%
clouds,
%
prec.,
mm/h
press.,
hPa
HPBL,
m
2 july, sat
sat200:00+16se396727 0.0 1022174
03:00+13se38690 0.0 1023143
06:00+15sse25720 0.0 1023124
09:00+22sse234737 0.0 1023432
12:00+27sse223470 0.0 10221166
15:00+29s112966 0.0 10201603
18:00+28sw113599 0.0 10191573
21:00+21ese116161 0.0 101911
3 july, sun
sun300:00+18s116097 0.0 101911
03:00+17s2263100 0.0 101915
06:00+18s1169100 0.0 101836
09:00+24wsw1153100 0.0 1018302
12:00+29ssw0142100 0.0 10181057
15:00+31nw1237100 0.0 10172449
18:00+28n2350100 0.0 1016369
21:00+23wnw3670100 0.0 1017165
4 july, mon
mon400:00+19ne3694100 1.1 1017119
03:00+18sw1195100 1.4 101724
06:00+18ene0195100 0.3 101750
09:00+22ssw128081 0.3 1017329
12:00+28sw12504 0.0 10161437
15:00+30wsw243878 0.0 10142709
18:00+24nne246574 0.1 101496
21:00+22se117376 0.1 101311
5 july, tue
tue500:00+19s2382100 0.1 101351
03:00+18s2491100 0.4 101386
06:00+18s2697100 1.3 1013178
09:00+22s35795 1.3 1013434
12:00+25wsw46619 1.6 10121072
15:00+27ssw2550100 2.9 10111402
18:00+27wsw354770 0.1 10111832
21:00+21w3870100 0.1 1012318
6 july, wed
wed600:00+17wsw228199 0.0 101348
03:00+17w117974 0.1 101422
06:00+16wnw257552 0.0 1014165
09:00+20wnw235197 0.0 1014723
12:00+21wsw2449100 0.0 10141100
15:00+24wsw343631 0.0 10122528
18:00+23sw244215 0.0 10121221
21:00+17wnw236476 0.0 101270